Location: Chevoux
(46.3801°N, 4.9476°E)
Time: 09:14:51
(UTC+00:00)

Envisat - Pass Details

Date: 04 December 2021
Orbit: 764 x 766 km, 98.2° (Epoch: 26 January)

Event Time Altitude Azimuth Distance (km) Brightness Sun altitude
Rises 05:30:50 0° 7° (N) 3,245 6.2 -15.9°
Reaches altitude 10° 05:33:15 10° 360° (N) 2,314 5.3 -15.4°
Maximum altitude 05:37:58 40° 292° (WNW) 1,121 3.4 -14.7°
Drops below altitude 10° 05:42:41 10° 224° (SW) 2,298 5.2 -13.9°
Sets 05:45:05 0° 217° (SW) 3,220 6.0 -13.5°
